owner,sensor,date,latitude,longitude,vertical_datum,sea_water_practical_salinity,qcFlag 
NERRS,ioos:station:NOAA.NERRS:gndbhwq:1,2011-09-01T06:45:00Z,30.4178,-88.4054,0.0,27.5,1111122 
NERRS,ioos:station:NOAA.NERRS:gndbhwq:1,2011-09-01T07:45:00Z,30.4178,-88.4054,0.0,27.5,1111122 
NERRS,ioos:station:NOAA.NERRS:gndbhwq:1,2011-09-01T08:45:00Z,30.4178,-88.4054,0.0,27.5,1111122 
NERRS,ioos:station:NOAA.NERRS:gndbhwq:1,2011-09-01T09:45:00Z,30.4178,-88.4054,0.0,27.5,1111122 
NERRS,ioos:station:NOAA.NERRS:gndbhwq:1,2011-09-01T10:45:00Z,30.4178,-88.4054,0.0,27.2,1111122 
NERRS,ioos:station:NOAA.NERRS:gndbhwq:1,2011-09-01T11:45:00Z,30.4178,-88.4054,0.0,27.5,1111122 
NERRS,ioos:station:NOAA.NERRS:gndbhwq:1,2011-09-01T12:45:00Z,30.4178,-88.4054,0.0,27.5,1111122 
NERRS,ioos:station:NOAA.NERRS:gndbhwq:1,2011-09-01T13:45:00Z,30.4178,-88.4054,0.0,27.6,1111122 
NERRS,ioos:station:NOAA.NERRS:gndbhwq:1,2011-09-01T14:45:00Z,30.4178,-88.4054,0.0,27.4,1111122 
NERRS,ioos:station:NOAA.NERRS:gndbhwq:1,2011-09-01T15:45:00Z,30.4178,-88.4054,0.0,27.6,1111122 
NERRS,ioos:station:NOAA.NERRS:gndbhwq:1,2011-09-01T16:45:00Z,30.4178,-88.4054,0.0,27.5,1111122 
NERRS,ioos:station:NOAA.NERRS:gndbhwq:1,2011-09-01T17:45:00Z,30.4178,-88.4054,0.0,27.6,1111122 
NERRS,ioos:station:NOAA.NERRS:gndbhwq:1,2011-09-01T18:45:00Z,30.4178,-88.4054,0.0,27.5,1111122 
NERRS,ioos:station:NOAA.NERRS:gndbhwq:1,2011-09-01T19:45:00Z,30.4178,-88.4054,0.0,27.5,1111122 
NERRS,ioos:station:NOAA.NERRS:gndbhwq:1,2011-09-01T20:45:00Z,30.4178,-88.4054,0.0,27.5,1111122 
NERRS,ioos:station:NOAA.NERRS:gndbhwq:1,2011-09-01T21:45:00Z,30.4178,-88.4054,0.0,27.5,1111122 
NERRS,ioos:station:NOAA.NERRS:gndbhwq:1,2011-09-01T22:45:00Z,30.4178,-88.4054,0.0,27.3,1111122 
NERRS,ioos:station:NOAA.NERRS:gndbhwq:1,2011-09-01T23:45:00Z,30.4178,-88.4054,0.0,27.4,1111122 
NERRS,ioos:station:NOAA.NERRS:gndbhwq:1,2011-09-02T06:45:00Z,30.4178,-88.4054,0.0,27.0,1111122 
NERRS,ioos:station:NOAA.NERRS:gndbhwq:1,2011-09-02T07:45:00Z,30.4178,-88.4054,0.0,26.9,1111122 
NERRS,ioos:station:NOAA.NERRS:gndbhwq:1,2011-09-02T08:45:00Z,30.4178,-88.4054,0.0,28.1,1111122 
NERRS,ioos:station:NOAA.NERRS:gndbhwq:1,2011-09-02T09:45:00Z,30.4178,-88.4054,0.0,26.8,1111122 
NERRS,ioos:station:NOAA.NERRS:gndbhwq:1,2011-09-02T10:45:00Z,30.4178,-88.4054,0.0,26.8,1111122 
NERRS,ioos:station:NOAA.NERRS:gndbhwq:1,2011-09-02T11:45:00Z,30.4178,-88.4054,0.0,26.7,1111122 
NERRS,ioos:station:NOAA.NERRS:gndbhwq:1,2011-09-02T12:45:00Z,30.4178,-88.4054,0.0,27.6,1111122 
NERRS,ioos:station:NOAA.NERRS:gndbhwq:1,2011-09-02T13:45:00Z,30.4178,-88.4054,0.0,27.0,1111122 
NERRS,ioos:station:NOAA.NERRS:gndbhwq:1,2011-09-02T14:45:00Z,30.4178,-88.4054,0.0,29.5,1111122 
NERRS,ioos:station:NOAA.NERRS:gndbhwq:1,2011-09-02T15:45:00Z,30.4178,-88.4054,0.0,27.5,1111122 
NERRS,ioos:station:NOAA.NERRS:gndbhwq:1,2011-09-02T16:45:00Z,30.4178,-88.4054,0.0,27.3,1111122 
NERRS,ioos:station:NOAA.NERRS:gndbhwq:1,2011-09-02T17:45:00Z,30.4178,-88.4054,0.0,27.7,1111122 
NERRS,ioos:station:NOAA.NERRS:gndbhwq:1,2011-09-02T18:45:00Z,30.4178,-88.4054,0.0,28.7,1111122 
NERRS,ioos:station:NOAA.NERRS:gndbhwq:1,2011-09-02T19:45:00Z,30.4178,-88.4054,0.0,27.5,1111122 
NERRS,ioos:station:NOAA.NERRS:gndbhwq:1,2011-09-02T20:45:00Z,30.4178,-88.4054,0.0,28.5,1111122 
NERRS,ioos:station:NOAA.NERRS:gndbhwq:1,2011-09-02T21:45:00Z,30.4178,-88.4054,0.0,28.1,1111122 
NERRS,ioos:station:NOAA.NERRS:gndbhwq:1,2011-09-02T22:45:00Z,30.4178,-88.4054,0.0,27.8,1111122 
NERRS,ioos:station:NOAA.NERRS:gndbhwq:1,2011-09-02T23:45:00Z,30.4178,-88.4054,0.0,28.0,1111122 
NERRS,ioos:station:NOAA.NERRS:gndbhwq:1,2011-09-03T06:45:00Z,30.4178,-88.4054,0.0,29.9,1111122 
NERRS,ioos:station:NOAA.NERRS:gndbhwq:1,2011-09-03T07:45:00Z,30.4178,-88.4054,0.0,29.7,1111122 
NERRS,ioos:station:NOAA.NERRS:gndbhwq:1,2011-09-03T08:45:00Z,30.4178,-88.4054,0.0,29.4,1111122 
NERRS,ioos:station:NOAA.NERRS:gndbhwq:1,2011-09-03T09:45:00Z,30.4178,-88.4054,0.0,29.6,1111122 
NERRS,ioos:station:NOAA.NERRS:gndbhwq:1,2011-09-03T10:45:00Z,30.4178,-88.4054,0.0,28.6,1111122 
NERRS,ioos:station:NOAA.NERRS:gndbhwq:1,2011-09-03T11:45:00Z,30.4178,-88.4054,0.0,23.4,1111122 
NERRS,ioos:station:NOAA.NERRS:gndbhwq:1,2011-09-03T12:45:00Z,30.4178,-88.4054,0.0,17.5,1111122 
NERRS,ioos:station:NOAA.NERRS:gndbhwq:1,2011-09-03T13:45:00Z,30.4178,-88.4054,0.0,13.9,1111122 
NERRS,ioos:station:NOAA.NERRS:gndbhwq:1,2011-09-03T14:45:00Z,30.4178,-88.4054,0.0,14.6,1111122 
NERRS,ioos:station:NOAA.NERRS:gndbhwq:1,2011-09-03T15:45:00Z,30.4178,-88.4054,0.0,14.4,1111122 
NERRS,ioos:station:NOAA.NERRS:gndbhwq:1,2011-09-03T16:45:00Z,30.4178,-88.4054,0.0,6.7,1111122 
NERRS,ioos:station:NOAA.NERRS:gndbhwq:1,2011-09-03T17:45:00Z,30.4178,-88.4054,0.0,4.1,1111122 
NERRS,ioos:station:NOAA.NERRS:gndbhwq:1,2011-09-03T18:45:00Z,30.4178,-88.4054,0.0,4.2,1111122 
NERRS,ioos:station:NOAA.NERRS:gndbhwq:1,2011-09-03T19:45:00Z,30.4178,-88.4054,0.0,2.4,1111122 
NERRS,ioos:station:NOAA.NERRS:gndbhwq:1,2011-09-03T20:45:00Z,30.4178,-88.4054,0.0,1.1,1111122 
NERRS,ioos:station:NOAA.NERRS:gndbhwq:1,2011-09-03T21:45:00Z,30.4178,-88.4054,0.0,0.8,1111122 
NERRS,ioos:station:NOAA.NERRS:gndbhwq:1,2011-09-03T22:45:00Z,30.4178,-88.4054,0.0,0.5,1111122 
NERRS,ioos:station:NOAA.NERRS:gndbhwq:1,2011-09-03T23:45:00Z,30.4178,-88.4054,0.0,0.5,1111122 
NERRS,ioos:station:NOAA.NERRS:gndbhwq:1,2011-09-04T06:45:00Z,30.4178,-88.4054,0.0,18.2,1111122 
NERRS,ioos:station:NOAA.NERRS:gndbhwq:1,2011-09-04T07:45:00Z,30.4178,-88.4054,0.0,21.0,1111122 
NERRS,ioos:station:NOAA.NERRS:gndbhwq:1,2011-09-04T08:45:00Z,30.4178,-88.4054,0.0,21.0,1111122 
NERRS,ioos:station:NOAA.NERRS:gndbhwq:1,2011-09-04T09:45:00Z,30.4178,-88.4054,0.0,10.5,1111122 
NERRS,ioos:station:NOAA.NERRS:gndbhwq:1,2011-09-04T10:45:00Z,30.4178,-88.4054,0.0,1.2,1111122 
NERRS,ioos:station:NOAA.NERRS:gndbhwq:1,2011-09-04T11:45:00Z,30.4178,-88.4054,0.0,0.4,1111122 
NERRS,ioos:station:NOAA.NERRS:gndbhwq:1,2011-09-04T12:45:00Z,30.4178,-88.4054,0.0,0.3,1111122 
NERRS,ioos:station:NOAA.NERRS:gndbhwq:1,2011-09-04T13:45:00Z,30.4178,-88.4054,0.0,0.2,1111122 
NERRS,ioos:station:NOAA.NERRS:gndbhwq:1,2011-09-04T14:45:00Z,30.4178,-88.4054,0.0,0.2,1111122 
NERRS,ioos:station:NOAA.NERRS:gndbhwq:1,2011-09-04T15:45:00Z,30.4178,-88.4054,0.0,0.2,1111122 
NERRS,ioos:station:NOAA.NERRS:gndbhwq:1,2011-09-04T16:45:00Z,30.4178,-88.4054,0.0,0.3,1111122 
NERRS,ioos:station:NOAA.NERRS:gndbhwq:1,2011-09-04T17:45:00Z,30.4178,-88.4054,0.0,0.4,1111122 
NERRS,ioos:station:NOAA.NERRS:gndbhwq:1,2011-09-04T18:45:00Z,30.4178,-88.4054,0.0,0.3,1111122 
NERRS,ioos:station:NOAA.NERRS:gndbhwq:1,2011-09-04T19:45:00Z,30.4178,-88.4054,0.0,0.2,1111122 
NERRS,ioos:station:NOAA.NERRS:gndbhwq:1,2011-09-04T20:45:00Z,30.4178,-88.4054,0.0,0.2,1111122 
NERRS,ioos:station:NOAA.NERRS:gndbhwq:1,2011-09-04T21:45:00Z,30.4178,-88.4054,0.0,0.2,1111122 
NERRS,ioos:station:NOAA.NERRS:gndbhwq:1,2011-09-04T22:45:00Z,30.4178,-88.4054,0.0,0.3,1111122 
NERRS,ioos:station:NOAA.NERRS:gndbhwq:1,2011-09-04T23:45:00Z,30.4178,-88.4054,0.0,0.3,1111122 
NERRS,ioos:station:NOAA.NERRS:gndbhwq:1,2011-09-05T06:45:00Z,30.4178,-88.4054,0.0,0.1,1111122 
NERRS,ioos:station:NOAA.NERRS:gndbhwq:1,2011-09-05T07:45:00Z,30.4178,-88.4054,0.0,0.1,1111122 
NERRS,ioos:station:NOAA.NERRS:gndbhwq:1,2011-09-05T08:45:00Z,30.4178,-88.4054,0.0,10.9,1111122 
NERRS,ioos:station:NOAA.NERRS:gndbhwq:1,2011-09-05T09:45:00Z,30.4178,-88.4054,0.0,12.4,1111122 
NERRS,ioos:station:NOAA.NERRS:gndbhwq:1,2011-09-05T10:45:00Z,30.4178,-88.4054,0.0,13.0,1111122 
NERRS,ioos:station:NOAA.NERRS:gndbhwq:1,2011-09-05T11:45:00Z,30.4178,-88.4054,0.0,13.8,1111122 
NERRS,ioos:station:NOAA.NERRS:gndbhwq:1,2011-09-05T12:45:00Z,30.4178,-88.4054,0.0,15.9,1111122 
NERRS,ioos:station:NOAA.NERRS:gndbhwq:1,2011-09-05T13:45:00Z,30.4178,-88.4054,0.0,8.1,1111122 
NERRS,ioos:station:NOAA.NERRS:gndbhwq:1,2011-09-05T14:45:00Z,30.4178,-88.4054,0.0,8.1,1111122 
NERRS,ioos:station:NOAA.NERRS:gndbhwq:1,2011-09-05T15:45:00Z,30.4178,-88.4054,0.0,0.4,1111122 
NERRS,ioos:station:NOAA.NERRS:gndbhwq:1,2011-09-05T16:45:00Z,30.4178,-88.4054,0.0,0.2,1111122 
NERRS,ioos:station:NOAA.NERRS:gndbhwq:1,2011-09-05T17:45:00Z,30.4178,-88.4054,0.0,0.2,1111122 
NERRS,ioos:station:NOAA.NERRS:gndbhwq:1,2011-09-05T18:45:00Z,30.4178,-88.4054,0.0,0.2,1111122 
NERRS,ioos:station:NOAA.NERRS:gndbhwq:1,2011-09-05T19:45:00Z,30.4178,-88.4054,0.0,0.2,1111122 
NERRS,ioos:station:NOAA.NERRS:gndbhwq:1,2011-09-05T20:45:00Z,30.4178,-88.4054,0.0,0.2,1111122 
NERRS,ioos:station:NOAA.NERRS:gndbhwq:1,2011-09-05T21:45:00Z,30.4178,-88.4054,0.0,0.2,1111122 
NERRS,ioos:station:NOAA.NERRS:gndbhwq:1,2011-09-05T22:45:00Z,30.4178,-88.4054,0.0,0.2,1111122 
NERRS,ioos:station:NOAA.NERRS:gndbhwq:1,2011-09-05T23:45:00Z,30.4178,-88.4054,0.0,0.2,1111122 
NERRS,ioos:station:NOAA.NERRS:gndbhwq:1,2011-09-06T06:45:00Z,30.4178,-88.4054,0.0,0.2,1111122 
NERRS,ioos:station:NOAA.NERRS:gndbhwq:1,2011-09-06T07:45:00Z,30.4178,-88.4054,0.0,0.2,1111122 
NERRS,ioos:station:NOAA.NERRS:gndbhwq:1,2011-09-06T08:45:00Z,30.4178,-88.4054,0.0,0.2,1111122 
NERRS,ioos:station:NOAA.NERRS:gndbhwq:1,2011-09-06T09:45:00Z,30.4178,-88.4054,0.0,0.1,1111122 
NERRS,ioos:station:NOAA.NERRS:gndbhwq:1,2011-09-06T10:45:00Z,30.4178,-88.4054,0.0,0.1,1111122 
NERRS,ioos:station:NOAA.NERRS:gndbhwq:1,2011-09-06T11:45:00Z,30.4178,-88.4054,0.0,0.2,1111122 
NERRS,ioos:station:NOAA.NERRS:gndbhwq:1,2011-09-06T12:45:00Z,30.4178,-88.4054,0.0,0.2,1111122 
NERRS,ioos:station:NOAA.NERRS:gndbhwq:1,2011-09-06T13:45:00Z,30.4178,-88.4054,0.0,0.2,1111122 
NERRS,ioos:station:NOAA.NERRS:gndbhwq:1,2011-09-06T14:45:00Z,30.4178,-88.4054,0.0,0.2,1111122 
NERRS,ioos:station:NOAA.NERRS:gndbhwq:1,2011-09-06T15:45:00Z,30.4178,-88.4054,0.0,0.2,1111122 
NERRS,ioos:station:NOAA.NERRS:gndbhwq:1,2011-09-06T16:45:00Z,30.4178,-88.4054,0.0,0.2,1111122 
NERRS,ioos:station:NOAA.NERRS:gndbhwq:1,2011-09-06T17:45:00Z,30.4178,-88.4054,0.0,0.2,1111122 
NERRS,ioos:station:NOAA.NERRS:gndbhwq:1,2011-09-06T18:45:00Z,30.4178,-88.4054,0.0,0.1,1111122 
NERRS,ioos:station:NOAA.NERRS:gndbhwq:1,2011-09-06T19:45:00Z,30.4178,-88.4054,0.0,0.2,1111122 
NERRS,ioos:station:NOAA.NERRS:gndbhwq:1,2011-09-06T20:45:00Z,30.4178,-88.4054,0.0,0.2,1111122 
NERRS,ioos:station:NOAA.NERRS:gndbhwq:1,2011-09-06T21:45:00Z,30.4178,-88.4054,0.0,0.2,1111122 
NERRS,ioos:station:NOAA.NERRS:gndbhwq:1,2011-09-06T22:45:00Z,30.4178,-88.4054,0.0,0.2,1111122 
NERRS,ioos:station:NOAA.NERRS:gndbhwq:1,2011-09-06T23:45:00Z,30.4178,-88.4054,0.0,0.2,1111122 
NERRS,ioos:station:NOAA.NERRS:gndbhwq:1,2011-09-07T06:45:00Z,30.4178,-88.4054,0.0,0.2,1111122 
NERRS,ioos:station:NOAA.NERRS:gndbhwq:1,2011-09-07T07:45:00Z,30.4178,-88.4054,0.0,0.2,1111122 
NERRS,ioos:station:NOAA.NERRS:gndbhwq:1,2011-09-07T08:45:00Z,30.4178,-88.4054,0.0,0.2,1111122 
NERRS,ioos:station:NOAA.NERRS:gndbhwq:1,2011-09-07T09:45:00Z,30.4178,-88.4054,0.0,1.0,1111122 
NERRS,ioos:station:NOAA.NERRS:gndbhwq:1,2011-09-07T10:45:00Z,30.4178,-88.4054,0.0,6.3,1111122 
NERRS,ioos:station:NOAA.NERRS:gndbhwq:1,2011-09-07T11:45:00Z,30.4178,-88.4054,0.0,6.6,1111122 
NERRS,ioos:station:NOAA.NERRS:gndbhwq:1,2011-09-07T12:45:00Z,30.4178,-88.4054,0.0,20.0,1111122 
NERRS,ioos:station:NOAA.NERRS:gndbhwq:1,2011-09-07T13:45:00Z,30.4178,-88.4054,0.0,11.4,1111122 
NERRS,ioos:station:NOAA.NERRS:gndbhwq:1,2011-09-07T14:45:00Z,30.4178,-88.4054,0.0,20.2,1111122 
NERRS,ioos:station:NOAA.NERRS:gndbhwq:1,2011-09-07T15:45:00Z,30.4178,-88.4054,0.0,10.6,1111122 
NERRS,ioos:station:NOAA.NERRS:gndbhwq:1,2011-09-07T16:45:00Z,30.4178,-88.4054,0.0,3.3,1111122 
NERRS,ioos:station:NOAA.NERRS:gndbhwq:1,2011-09-07T17:45:00Z,30.4178,-88.4054,0.0,1.2,1111122 
NERRS,ioos:station:NOAA.NERRS:gndbhwq:1,2011-09-07T18:45:00Z,30.4178,-88.4054,0.0,1.0,1111122 
NERRS,ioos:station:NOAA.NERRS:gndbhwq:1,2011-09-07T19:45:00Z,30.4178,-88.4054,0.0,0.9,1111122 
NERRS,ioos:station:NOAA.NERRS:gndbhwq:1,2011-09-07T20:45:00Z,30.4178,-88.4054,0.0,0.7,1111122 
NERRS,ioos:station:NOAA.NERRS:gndbhwq:1,2011-09-07T21:45:00Z,30.4178,-88.4054,0.0,0.9,1111122 
NERRS,ioos:station:NOAA.NERRS:gndbhwq:1,2011-09-07T22:45:00Z,30.4178,-88.4054,0.0,1.0,1111122 
NERRS,ioos:station:NOAA.NERRS:gndbhwq:1,2011-09-07T23:45:00Z,30.4178,-88.4054,0.0,0.8,1111122 
NERRS,ioos:station:NOAA.NERRS:gndbhwq:1,2011-09-08T06:45:00Z,30.4178,-88.4054,0.0,21.2,1111122 
NERRS,ioos:station:NOAA.NERRS:gndbhwq:1,2011-09-08T07:45:00Z,30.4178,-88.4054,0.0,21.3,1111122 
NERRS,ioos:station:NOAA.NERRS:gndbhwq:1,2011-09-08T08:45:00Z,30.4178,-88.4054,0.0,21.4,1111122 
NERRS,ioos:station:NOAA.NERRS:gndbhwq:1,2011-09-08T09:45:00Z,30.4178,-88.4054,0.0,21.4,1111122 
NERRS,ioos:station:NOAA.NERRS:gndbhwq:1,2011-09-08T10:45:00Z,30.4178,-88.4054,0.0,21.5,1111122 
NERRS,ioos:station:NOAA.NERRS:gndbhwq:1,2011-09-08T11:45:00Z,30.4178,-88.4054,0.0,21.5,1111122 
NERRS,ioos:station:NOAA.NERRS:gndbhwq:1,2011-09-08T12:45:00Z,30.4178,-88.4054,0.0,21.5,1111122 
NERRS,ioos:station:NOAA.NERRS:gndbhwq:1,2011-09-08T13:45:00Z,30.4178,-88.4054,0.0,21.7,1111122 
NERRS,ioos:station:NOAA.NERRS:gndbhwq:1,2011-09-08T14:45:00Z,30.4178,-88.4054,0.0,22.3,1111122 
NERRS,ioos:station:NOAA.NERRS:gndbhwq:1,2011-09-08T15:45:00Z,30.4178,-88.4054,0.0,22.6,1111122 
NERRS,ioos:station:NOAA.NERRS:gndbhwq:1,2011-09-08T16:45:00Z,30.4178,-88.4054,0.0,22.6,1111122 
NERRS,ioos:station:NOAA.NERRS:gndbhwq:1,2011-09-08T17:45:00Z,30.4178,-88.4054,0.0,22.8,1111122 
NERRS,ioos:station:NOAA.NERRS:gndbhwq:1,2011-09-08T18:45:00Z,30.4178,-88.4054,0.0,22.8,1111122 
NERRS,ioos:station:NOAA.NERRS:gndbhwq:1,2011-09-08T19:45:00Z,30.4178,-88.4054,0.0,22.9,1111122 
NERRS,ioos:station:NOAA.NERRS:gndbhwq:1,2011-09-08T20:45:00Z,30.4178,-88.4054,0.0,22.9,1111122 
NERRS,ioos:station:NOAA.NERRS:gndbhwq:1,2011-09-08T21:45:00Z,30.4178,-88.4054,0.0,23.0,1111122 
NERRS,ioos:station:NOAA.NERRS:gndbhwq:1,2011-09-08T22:45:00Z,30.4178,-88.4054,0.0,23.0,1111122 
NERRS,ioos:station:NOAA.NERRS:gndbhwq:1,2011-09-08T23:45:00Z,30.4178,-88.4054,0.0,23.1,1111122 
NERRS,ioos:station:NOAA.NERRS:gndbhwq:1,2011-09-09T06:45:00Z,30.4178,-88.4054,0.0,23.5,1111122 
NERRS,ioos:station:NOAA.NERRS:gndbhwq:1,2011-09-09T07:45:00Z,30.4178,-88.4054,0.0,23.7,1111122 
NERRS,ioos:station:NOAA.NERRS:gndbhwq:1,2011-09-09T08:45:00Z,30.4178,-88.4054,0.0,23.7,1111122 
NERRS,ioos:station:NOAA.NERRS:gndbhwq:1,2011-09-09T09:45:00Z,30.4178,-88.4054,0.0,24.0,1111122 
NERRS,ioos:station:NOAA.NERRS:gndbhwq:1,2011-09-09T10:45:00Z,30.4178,-88.4054,0.0,24.2,1111122 
NERRS,ioos:station:NOAA.NERRS:gndbhwq:1,2011-09-09T11:45:00Z,30.4178,-88.4054,0.0,24.2,1111122 
NERRS,ioos:station:NOAA.NERRS:gndbhwq:1,2011-09-09T12:45:00Z,30.4178,-88.4054,0.0,24.3,1111122 
NERRS,ioos:station:NOAA.NERRS:gndbhwq:1,2011-09-09T13:45:00Z,30.4178,-88.4054,0.0,24.4,1111122 
NERRS,ioos:station:NOAA.NERRS:gndbhwq:1,2011-09-09T14:45:00Z,30.4178,-88.4054,0.0,24.4,1111122 
NERRS,ioos:station:NOAA.NERRS:gndbhwq:1,2011-09-09T15:45:00Z,30.4178,-88.4054,0.0,24.4,1111122 
NERRS,ioos:station:NOAA.NERRS:gndbhwq:1,2011-09-09T16:45:00Z,30.4178,-88.4054,0.0,24.5,1111122 
NERRS,ioos:station:NOAA.NERRS:gndbhwq:1,2011-09-09T17:45:00Z,30.4178,-88.4054,0.0,24.5,1111122 
NERRS,ioos:station:NOAA.NERRS:gndbhwq:1,2011-09-09T18:45:00Z,30.4178,-88.4054,0.0,24.4,1111122 
NERRS,ioos:station:NOAA.NERRS:gndbhwq:1,2011-09-09T19:45:00Z,30.4178,-88.4054,0.0,24.4,1111122 
NERRS,ioos:station:NOAA.NERRS:gndbhwq:1,2011-09-09T20:45:00Z,30.4178,-88.4054,0.0,24.1,1111122 
NERRS,ioos:station:NOAA.NERRS:gndbhwq:1,2011-09-09T21:45:00Z,30.4178,-88.4054,0.0,24.0,1111122 
NERRS,ioos:station:NOAA.NERRS:gndbhwq:1,2011-09-09T22:45:00Z,30.4178,-88.4054,0.0,23.7,1111122 
NERRS,ioos:station:NOAA.NERRS:gndbhwq:1,2011-09-09T23:45:00Z,30.4178,-88.4054,0.0,23.8,1111122 
NERRS,ioos:station:NOAA.NERRS:gndbhwq:1,2011-09-10T06:45:00Z,30.4178,-88.4054,0.0,24.0,1111122 
NERRS,ioos:station:NOAA.NERRS:gndbhwq:1,2011-09-10T07:45:00Z,30.4178,-88.4054,0.0,24.1,1111122 
NERRS,ioos:station:NOAA.NERRS:gndbhwq:1,2011-09-10T08:45:00Z,30.4178,-88.4054,0.0,24.1,1111122 
NERRS,ioos:station:NOAA.NERRS:gndbhwq:1,2011-09-10T09:45:00Z,30.4178,-88.4054,0.0,24.2,1111122 
NERRS,ioos:station:NOAA.NERRS:gndbhwq:1,2011-09-10T10:45:00Z,30.4178,-88.4054,0.0,24.2,1111122 
NERRS,ioos:station:NOAA.NERRS:gndbhwq:1,2011-09-10T11:45:00Z,30.4178,-88.4054,0.0,24.2,1111122 
NERRS,ioos:station:NOAA.NERRS:gndbhwq:1,2011-09-10T12:45:00Z,30.4178,-88.4054,0.0,24.2,1111122 
NERRS,ioos:station:NOAA.NERRS:gndbhwq:1,2011-09-10T13:45:00Z,30.4178,-88.4054,0.0,24.2,1111122 
NERRS,ioos:station:NOAA.NERRS:gndbhwq:1,2011-09-10T14:45:00Z,30.4178,-88.4054,0.0,24.2,1111122 
NERRS,ioos:station:NOAA.NERRS:gndbhwq:1,2011-09-10T15:45:00Z,30.4178,-88.4054,0.0,24.2,1111122 
NERRS,ioos:station:NOAA.NERRS:gndbhwq:1,2011-09-10T16:45:00Z,30.4178,-88.4054,0.0,24.2,1111122 
NERRS,ioos:station:NOAA.NERRS:gndbhwq:1,2011-09-10T17:45:00Z,30.4178,-88.4054,0.0,24.7,1111122 
NERRS,ioos:station:NOAA.NERRS:gndbhwq:1,2011-09-10T18:45:00Z,30.4178,-88.4054,0.0,24.2,1111122 
NERRS,ioos:station:NOAA.NERRS:gndbhwq:1,2011-09-10T19:45:00Z,30.4178,-88.4054,0.0,24.2,1111122 
NERRS,ioos:station:NOAA.NERRS:gndbhwq:1,2011-09-10T20:45:00Z,30.4178,-88.4054,0.0,23.9,1111122 
NERRS,ioos:station:NOAA.NERRS:gndbhwq:1,2011-09-10T21:45:00Z,30.4178,-88.4054,0.0,23.9,1111122 
NERRS,ioos:station:NOAA.NERRS:gndbhwq:1,2011-09-10T22:45:00Z,30.4178,-88.4054,0.0,23.8,1111122 
NERRS,ioos:station:NOAA.NERRS:gndbhwq:1,2011-09-10T23:45:00Z,30.4178,-88.4054,0.0,23.9,1111122 
NERRS,ioos:station:NOAA.NERRS:gndbhwq:1,2011-09-11T06:45:00Z,30.4178,-88.4054,0.0,23.8,1111122 
NERRS,ioos:station:NOAA.NERRS:gndbhwq:1,2011-09-11T07:45:00Z,30.4178,-88.4054,0.0,23.8,1111122 
NERRS,ioos:station:NOAA.NERRS:gndbhwq:1,2011-09-11T08:45:00Z,30.4178,-88.4054,0.0,24.0,1111122 
NERRS,ioos:station:NOAA.NERRS:gndbhwq:1,2011-09-11T09:45:00Z,30.4178,-88.4054,0.0,24.3,1111122 
NERRS,ioos:station:NOAA.NERRS:gndbhwq:1,2011-09-11T10:45:00Z,30.4178,-88.4054,0.0,24.5,1111122 
NERRS,ioos:station:NOAA.NERRS:gndbhwq:1,2011-09-11T11:45:00Z,30.4178,-88.4054,0.0,24.4,1111122 
NERRS,ioos:station:NOAA.NERRS:gndbhwq:1,2011-09-11T12:45:00Z,30.4178,-88.4054,0.0,24.7,1111122 
NERRS,ioos:station:NOAA.NERRS:gndbhwq:1,2011-09-11T13:45:00Z,30.4178,-88.4054,0.0,24.8,1111122 
NERRS,ioos:station:NOAA.NERRS:gndbhwq:1,2011-09-11T14:45:00Z,30.4178,-88.4054,0.0,24.8,1111122 
NERRS,ioos:station:NOAA.NERRS:gndbhwq:1,2011-09-11T15:45:00Z,30.4178,-88.4054,0.0,24.4,1111122 
NERRS,ioos:station:NOAA.NERRS:gndbhwq:1,2011-09-11T16:45:00Z,30.4178,-88.4054,0.0,24.7,1111122 
NERRS,ioos:station:NOAA.NERRS:gndbhwq:1,2011-09-11T17:45:00Z,30.4178,-88.4054,0.0,24.8,1111122 
NERRS,ioos:station:NOAA.NERRS:gndbhwq:1,2011-09-11T18:45:00Z,30.4178,-88.4054,0.0,25.2,1111122 
NERRS,ioos:station:NOAA.NERRS:gndbhwq:1,2011-09-11T19:45:00Z,30.4178,-88.4054,0.0,25.0,1111122 
NERRS,ioos:station:NOAA.NERRS:gndbhwq:1,2011-09-11T20:45:00Z,30.4178,-88.4054,0.0,24.6,1111122 
NERRS,ioos:station:NOAA.NERRS:gndbhwq:1,2011-09-11T21:45:00Z,30.4178,-88.4054,0.0,24.7,1111122 
NERRS,ioos:station:NOAA.NERRS:gndbhwq:1,2011-09-11T22:45:00Z,30.4178,-88.4054,0.0,24.7,1111122 
NERRS,ioos:station:NOAA.NERRS:gndbhwq:1,2011-09-11T23:45:00Z,30.4178,-88.4054,0.0,25.0,1111122 
NERRS,ioos:station:NOAA.NERRS:gndbhwq:1,2011-09-12T06:45:00Z,30.4178,-88.4054,0.0,24.5,1111122 
NERRS,ioos:station:NOAA.NERRS:gndbhwq:1,2011-09-12T07:45:00Z,30.4178,-88.4054,0.0,24.5,1111122 
NERRS,ioos:station:NOAA.NERRS:gndbhwq:1,2011-09-12T08:45:00Z,30.4178,-88.4054,0.0,24.3,1111122 
NERRS,ioos:station:NOAA.NERRS:gndbhwq:1,2011-09-12T09:45:00Z,30.4178,-88.4054,0.0,24.6,1111122 
NERRS,ioos:station:NOAA.NERRS:gndbhwq:1,2011-09-12T10:45:00Z,30.4178,-88.4054,0.0,24.6,1111122 
NERRS,ioos:station:NOAA.NERRS:gndbhwq:1,2011-09-12T11:45:00Z,30.4178,-88.4054,0.0,25.1,1111122 
NERRS,ioos:station:NOAA.NERRS:gndbhwq:1,2011-09-12T12:45:00Z,30.4178,-88.4054,0.0,25.3,1111122 
NERRS,ioos:station:NOAA.NERRS:gndbhwq:1,2011-09-12T13:45:00Z,30.4178,-88.4054,0.0,25.4,1111122 
NERRS,ioos:station:NOAA.NERRS:gndbhwq:1,2011-09-12T14:45:00Z,30.4178,-88.4054,0.0,25.4,1111122 
NERRS,ioos:station:NOAA.NERRS:gndbhwq:1,2011-09-12T15:45:00Z,30.4178,-88.4054,0.0,25.4,1111122 
NERRS,ioos:station:NOAA.NERRS:gndbhwq:1,2011-09-12T16:45:00Z,30.4178,-88.4054,0.0,25.5,1111122 
NERRS,ioos:station:NOAA.NERRS:gndbhwq:1,2011-09-12T17:45:00Z,30.4178,-88.4054,0.0,25.5,1111122 
NERRS,ioos:station:NOAA.NERRS:gndbhwq:1,2011-09-12T18:45:00Z,30.4178,-88.4054,0.0,25.5,1111122 
NERRS,ioos:station:NOAA.NERRS:gndbhwq:1,2011-09-12T19:45:00Z,30.4178,-88.4054,0.0,25.5,1111122 
NERRS,ioos:station:NOAA.NERRS:gndbhwq:1,2011-09-12T20:45:00Z,30.4178,-88.4054,0.0,25.5,1111122 
NERRS,ioos:station:NOAA.NERRS:gndbhwq:1,2011-09-12T21:45:00Z,30.4178,-88.4054,0.0,25.2,1111122 
NERRS,ioos:station:NOAA.NERRS:gndbhwq:1,2011-09-12T22:45:00Z,30.4178,-88.4054,0.0,25.4,1111122 
NERRS,ioos:station:NOAA.NERRS:gndbhwq:1,2011-09-12T23:45:00Z,30.4178,-88.4054,0.0,25.5,1111122 
NERRS,ioos:station:NOAA.NERRS:gndbhwq:1,2011-09-13T06:45:00Z,30.4178,-88.4054,0.0,24.7,1111122 
NERRS,ioos:station:NOAA.NERRS:gndbhwq:1,2011-09-13T07:45:00Z,30.4178,-88.4054,0.0,24.9,1111122 
NERRS,ioos:station:NOAA.NERRS:gndbhwq:1,2011-09-13T08:45:00Z,30.4178,-88.4054,0.0,24.7,1111122 
NERRS,ioos:station:NOAA.NERRS:gndbhwq:1,2011-09-13T09:45:00Z,30.4178,-88.4054,0.0,24.7,1111122 
NERRS,ioos:station:NOAA.NERRS:gndbhwq:1,2011-09-13T10:45:00Z,30.4178,-88.4054,0.0,24.6,1111122 
NERRS,ioos:station:NOAA.NERRS:gndbhwq:1,2011-09-13T11:45:00Z,30.4178,-88.4054,0.0,24.8,1111122 
NERRS,ioos:station:NOAA.NERRS:gndbhwq:1,2011-09-13T12:45:00Z,30.4178,-88.4054,0.0,25.1,1111122 
NERRS,ioos:station:NOAA.NERRS:gndbhwq:1,2011-09-13T13:45:00Z,30.4178,-88.4054,0.0,25.2,1111122 
NERRS,ioos:station:NOAA.NERRS:gndbhwq:1,2011-09-13T14:45:00Z,30.4178,-88.4054,0.0,25.1,1111122 
NERRS,ioos:station:NOAA.NERRS:gndbhwq:1,2011-09-13T15:45:00Z,30.4178,-88.4054,0.0,24.9,1111122 
NERRS,ioos:station:NOAA.NERRS:gndbhwq:1,2011-09-13T16:45:00Z,30.4178,-88.4054,0.0,25.2,1111122 
NERRS,ioos:station:NOAA.NERRS:gndbhwq:1,2011-09-13T17:45:00Z,30.4178,-88.4054,0.0,25.1,1111122 
NERRS,ioos:station:NOAA.NERRS:gndbhwq:1,2011-09-13T18:45:00Z,30.4178,-88.4054,0.0,25.2,1111122 
NERRS,ioos:station:NOAA.NERRS:gndbhwq:1,2011-09-13T19:45:00Z,30.4178,-88.4054,0.0,24.8,1111122 
NERRS,ioos:station:NOAA.NERRS:gndbhwq:1,2011-09-13T20:45:00Z,30.4178,-88.4054,0.0,24.9,1111122 
NERRS,ioos:station:NOAA.NERRS:gndbhwq:1,2011-09-13T21:45:00Z,30.4178,-88.4054,0.0,24.8,1111122 
NERRS,ioos:station:NOAA.NERRS:gndbhwq:1,2011-09-13T22:45:00Z,30.4178,-88.4054,0.0,24.7,1111122 
NERRS,ioos:station:NOAA.NERRS:gndbhwq:1,2011-09-13T23:45:00Z,30.4178,-88.4054,0.0,24.6,1111122 
NERRS,ioos:station:NOAA.NERRS:gndbhwq:1,2011-09-14T06:45:00Z,30.4178,-88.4054,0.0,24.5,1111122 
NERRS,ioos:station:NOAA.NERRS:gndbhwq:1,2011-09-14T07:45:00Z,30.4178,-88.4054,0.0,24.4,1111122 
NERRS,ioos:station:NOAA.NERRS:gndbhwq:1,2011-09-14T08:45:00Z,30.4178,-88.4054,0.0,24.5,1111122 
NERRS,ioos:station:NOAA.NERRS:gndbhwq:1,2011-09-14T09:45:00Z,30.4178,-88.4054,0.0,24.4,1111122 
NERRS,ioos:station:NOAA.NERRS:gndbhwq:1,2011-09-14T10:45:00Z,30.4178,-88.4054,0.0,24.5,1111122 
NERRS,ioos:station:NOAA.NERRS:gndbhwq:1,2011-09-14T11:45:00Z,30.4178,-88.4054,0.0,24.8,1111122 
NERRS,ioos:station:NOAA.NERRS:gndbhwq:1,2011-09-14T12:45:00Z,30.4178,-88.4054,0.0,25.0,1111122 
NERRS,ioos:station:NOAA.NERRS:gndbhwq:1,2011-09-14T13:45:00Z,30.4178,-88.4054,0.0,25.0,1111122 
NERRS,ioos:station:NOAA.NERRS:gndbhwq:1,2011-09-14T14:45:00Z,30.4178,-88.4054,0.0,25.2,1111122 
NERRS,ioos:station:NOAA.NERRS:gndbhwq:1,2011-09-14T15:45:00Z,30.4178,-88.4054,0.0,25.2,1111122 
NERRS,ioos:station:NOAA.NERRS:gndbhwq:1,2011-09-14T16:45:00Z,30.4178,-88.4054,0.0,25.3,1111122 
NERRS,ioos:station:NOAA.NERRS:gndbhwq:1,2011-09-14T17:45:00Z,30.4178,-88.4054,0.0,25.2,1111122 
NERRS,ioos:station:NOAA.NERRS:gndbhwq:1,2011-09-14T18:45:00Z,30.4178,-88.4054,0.0,25.5,1111122 
NERRS,ioos:station:NOAA.NERRS:gndbhwq:1,2011-09-14T19:45:00Z,30.4178,-88.4054,0.0,25.2,1111122 
NERRS,ioos:station:NOAA.NERRS:gndbhwq:1,2011-09-14T20:45:00Z,30.4178,-88.4054,0.0,25.2,1111122 